This is the latest recevied weather packets stored in our database for station/object EA3IK-1. If no packets are shown the sender has not sent any weather packets the latest 10 day(s).
| Time | Temp. | Humidity | Pressure | Rain* | Wind** | Luminosity | Snow |
|---|---|---|---|---|---|---|---|
| 1777280718 | 21.67° C | 63% | 1018.4 hPa | 0 mm | - | - | - |
| 1777279818 | 20.56° C | 61% | 1018.4 hPa | 0 mm | - | - | - |
| 1777278917 | 20° C | 60% | 1018.3 hPa | 0 mm | - | - | - |
| 1777278016 | 19.44° C | 55% | 1018.4 hPa | 0 mm | - | - | - |
| 1777277115 | 18.89° C | 56% | 1018.4 hPa | 0 mm | - | - | - |
| 1777276214 | 18.33° C | 54% | 1018.5 hPa | 0 mm | - | - | - |
| 1777275313 | 17.78° C | 55% | 1018.4 hPa | 0 mm | - | - | - |
| 1777274414 | 17.78° C | 48% | 1018.4 hPa | 0 mm | - | - | - |
| 1777273512 | 17.78° C | 47% | 1018.4 hPa | 0 mm | - | - | - |
| 1777272611 | 17.78° C | 45% | 1018.4 hPa | 0 mm | - | - | - |
| 1777271710 | 17.78° C | 45% | 1018.4 hPa | 0 mm | - | - | - |
| 1777270809 | 17.78° C | 45% | 1018.3 hPa | 0 mm | - | - | - |
| 1777269908 | 17.22° C | 46% | 1018.2 hPa | 0 mm | - | - | - |
| 1777269007 | 17.22° C | 47% | 1018.1 hPa | 0 mm | - | - | - |
| 1777268106 | 17.78° C | 49% | 1017.9 hPa | 0 mm | - | - | - |
| 1777267206 | 17.22° C | 52% | 1017.9 hPa | 0 mm | - | - | - |
| 1777266305 | 16.67° C | 55% | 1017.7 hPa | 0 mm | - | - | - |
| 1777265404 | 16.67° C | 54% | 1017.7 hPa | 0 mm | - | - | - |
| 1777264503 | 17.22° C | 48% | 1017.5 hPa | 0 mm | - | - | - |
| 1777263602 | 17.78° C | 50% | 1017.5 hPa | 0 mm | - | - | - |
| 1777262701 | 17.22° C | 54% | 1017.5 hPa | 0 mm | - | - | - |
| 1777261800 | 17.78° C | 52% | 1017.5 hPa | 0 mm | - | - | - |
| 1777260900 | 17.78° C | 57% | 1017.4 hPa | 0 mm | - | - | - |
| 1777259999 | 17.78° C | 60% | 1017.4 hPa | 0 mm | - | - | - |
| 1777259098 | 16.67° C | 68% | 1017.5 hPa | 0 mm | - | - | - |
* Rain latest hour (hover to see other rain measurements)
** Current wind speed in m/s (hover to see current wind gust speed)